STARLINK-35415

Last updated on Mon Oct 20 2025 00:02:08 GMT+0000 (Coordinated Universal Time)

1 65885U 25224D 25292.25002315 -.01481767 00000+0 -79787-2 0 9990 2 65885 53.1514 313.5164 0001226 75.9442 36.6105 15.82206675 3059
UTC large
Height (km)
Speed (km/s)
/
Latitude / Longitude
Inclination (degrees)
Orbital Period (minutes)
Azimuth
Elevation
Range (km)
Doppler Factor

Next 0 passes for location: London (51.5072 / 0.1276)

Sorry there are no passes over London.